Flag for Brazil Weather past 2 weeks in Fortaleza, Ceará, Brazil

Now
81 °F

Passing clouds.


Feels Like: 85 °F
Forecast: 78 / 88 °F
Wind: 3 mph from South

Location: Fortaleza Aeropor-To

Current Time: Mar 2, 2015 at 9:12:43 AM

Latest Report: Mar 2, 2015 at 8:00 AM


Visibility: N/A

Pressure: 29.92 "Hg

Humidity: 79%

Dew point: 73 °F

Location of FortalezaLocation

Historic Weather in Fortaleza — Graph

°F

Fortaleza temperature yesterday

Maximum temperature yesterday: 84 °F (at 10:00 AM)
Minimum temperature yesterday: 73 °F (at 6:00 AM)
Average temperature yesterday: 80 °F

Past Weeks' High & Low Weather Summary

 TemperatureHumidityPressure
High86 °F (Feb 15, 12:00 PM)94% (Feb 17, 2:00 PM)30.04 "Hg (Feb 17, 2:00 PM)
Low72 °F (Feb 21, 8:00 AM)59% (Feb 15, 12:00 PM)29.77 "Hg (Feb 18, 4:00 PM)
Average80 °F78%29.87 "Hg
* Reported Feb 15 8:00 AM — Mar 2 8:00 AM, Fortaleza, Weather by CustomWeather, © 2015

Note: Actual official high and low records may vary slightly from our data, if they occured in-between our weather recording intervals... More about our weather records

Advertising

Fortaleza weather history for previous 24 hours

 ConditionsComfort  
Time TempWeatherWind HumidityBarometerVisibility
8:00 AM
Mon, Mar 2
81 °FPassing clouds.3 mph79%29.92 "HgN/A
7:00 AM77 °FPassing clouds.2 mph94%29.92 "HgN/A
6:00 AM75 °FScattered clouds.5 mph89%29.89 "HgN/A
5:00 AM75 °FRain. Passing clouds.9 mph94%29.86 "Hg2 mi
4:00 AM77 °FPassing clouds.3 mph89%29.86 "HgN/A
3:00 AM77 °FLight rain. Passing clouds.No wind89%29.86 "Hg4 mi
2:00 AM79 °FPassing clouds.5 mph79%29.86 "HgN/A
1:00 AM79 °FPassing clouds.3 mph79%29.86 "HgN/A
12:00 AM81 °FPassing clouds.5 mph74%29.89 "HgN/A
11:00 PM
Sun, Mar 1
81 °FPassing clouds.3 mph70%29.92 "HgN/A
10:00 PM81 °FPassing clouds.3 mph70%29.92 "HgN/A
9:00 PM81 °FPassing clouds.5 mph70%29.92 "HgN/A
8:00 PM81 °FPassing clouds.6 mph70%29.86 "HgN/A
7:00 PM81 °FPassing clouds.5 mph70%29.86 "HgN/A
6:00 PM81 °FPassing clouds.8 mph70%29.83 "HgN/A
5:00 PM82 °FBroken clouds.9 mph66%29.83 "HgN/A
4:00 PM82 °FBroken clouds.9 mph62%29.83 "HgN/A
3:00 PM84 °FScattered clouds.13 mph62%29.83 "HgN/A
2:00 PM84 °FPartly sunny.12 mph62%29.83 "HgN/A
1:00 PM84 °FPartly sunny.9 mph70%29.86 "HgN/A
12:00 PM84 °FPartly sunny.12 mph66%29.89 "HgN/A
11:00 AM84 °FPartly sunny.8 mph66%29.92 "HgN/A
10:00 AM84 °FPartly sunny.10 mph66%29.92 "HgN/A
9:00 AM81 °FScattered clouds.8 mph79%29.92 "HgN/A
Weather by CustomWeather, © 2015

See weather overviewHow to use our weather pages